Location: Northam
(31.6525°S, 116.6655°E)
Time: 14:44:30
(UTC+08:00)

Hubble Space Telescope - Visible Passes

Search period start: 12 August 2020 00:00
Search period end: 22 August 2020 00:00
Orbit: 536 x 540 km, 28.5° (Epoch: 11 August)

Date Brightness Start Highest point End Pass type
(mag) Time Alt. Az. Time Alt. Az. Time Alt. Az.
12 Aug 1.9 19:09:25 10° W 19:13:16 37° NNW 19:14:49 27° NNE visible
13 Aug 2.2 18:58:47 10° W 19:02:31 32° NNW 19:05:00 17° NE visible
14 Aug 2.5 18:48:12 10° WNW 18:51:45 27° NNW 18:55:15 10° NE visible
15 Aug 2.8 18:37:40 10° WNW 18:40:59 23° NNW 18:44:17 10° NNE visible
16 Aug 3.2 18:27:13 10° WNW 18:30:12 19° NNW 18:33:09 10° NNE visible
17 Aug 3.4 18:16:55 10° WNW 18:19:24 15° NNW 18:21:52 10° NNE visible
